Regional Weather Roundup
Issued by NWS

Home | Current Version | Previous Version | Graphics & Text | Print | Product List | Glossary On
Versions: 1 2 3 4 5 6 7 8 9 10 11 12 13 14 15 16 17 18 19 20 21 22 23 24 25 26 27 28 29 30 31 32 33 34 35 36 37 38 39 40 41 42 43 44 45 46 47 48 49 50
000
ASUS43 KOAX 070002
RWRNE

WEATHER ROUNDUP FOR NEBRASKA
NATIONAL WEATHER SERVICE OMAHA NE
600 PM CST FRI MAR 06 2015

NOTES: SATELLITE DATA IS BEING USED TO AUGMENT CLOUD COVER ABOVE
       12000 FEET.
       "FAIR" INDICATES FEW OR NO CLOUDS BELOW 12,000 FEET WITH NO
       SIGNIFICANT WEATHER AND/OR OBSTRUCTIONS TO VISIBILITY.

  * THESE STATIONS DO NOT REPORT WEATHER SUCH AS RAIN...SNOW OR FOG.

NEZ001>004-019>022-054>056-070100-
NEBRASKA PANHANDLE

CITY           SKY/WX    TMP DP  RH WIND       PRES   REMARKS
SCOTTSBLUFF    CLEAR     53  18  25 W15G25    30.19S
6HR MIN TEMP:  53; 6HR MAX TEMP:  57;

ALLIANCE       CLEAR     52  15  23 NW15      30.15S
6HR MIN TEMP:  52; 6HR MAX TEMP:  58;

CHADRON        CLEAR     49  24  37 W16       30.13S
6HR MIN TEMP:  46; 6HR MAX TEMP:  54;

KIMBALL        CLEAR     49  16  27 NW21G26   30.19S
SIDNEY         CLEAR     52  14  22 NW15      30.19F
6HR MIN TEMP:  52; 6HR MAX TEMP:  57;

$$

NEZ057>060-069>072-079>082-070100-
SOUTHWEST NEBRASKA

CITY           SKY/WX    TMP DP  RH WIND       PRES   REMARKS
NORTH PLATTE   CLEAR     58  13  17 W15       30.14S
6HR MIN TEMP:  56; 6HR MAX TEMP:  63;

IMPERIAL         N/A     58  13  17 W12       30.17S
6HR MIN TEMP:  56; 6HR MAX TEMP:  61;

LEXINGTON      CLEAR     58  17  19 W8        30.13S
MCCOOK         CLEAR     62  14  15 W9        30.15S
6HR MIN TEMP:  57; 6HR MAX TEMP:  66;

$$

NEZ005>010-023>029-035>040-094-070100-
NORTH CENTRAL NEBRASKA

CITY           SKY/WX    TMP DP  RH WIND       PRES   REMARKS
VALENTINE      PTCLDY    55  18  23 W9        30.08F
6HR MIN TEMP:  54; 6HR MAX TEMP:  59;

AINSWORTH      PTCLDY    53  16  23 NW5       30.08F
BROKEN BOW     PTCLDY    59  18  20 W10       30.10F
6HR MIN TEMP:  56; 6HR MAX TEMP:  63;

ORD            PTCLDY    56  14  19 W7        30.08F
6HR MIN TEMP:  55; 6HR MAX TEMP:  63;

$$

NEZ041-046>049-061>064-073>077-083>087-070100-
SOUTH CENTRAL NEBRASKA

CITY           SKY/WX    TMP DP  RH WIND       PRES   REMARKS
GRAND ISLAND   CLEAR     59  18  20 W5        30.12S
6HR MIN TEMP:  55; 6HR MAX TEMP:  63;

AURORA         CLEAR     58  17  20 W5        30.11F
HASTINGS       CLEAR     59  16  18 W9        30.12S
6HR MIN TEMP:  55; 6HR MAX TEMP:  62;

HEBRON         CLEAR     59  15  17 W6        30.14F
HOLDREGE       CLEAR     59  16  19 W7        30.14S
KEARNEY *      CLEAR     59  18  20 W7        30.13S
YORK           CLEAR     55  19  24 NW7       30.12S
$$

NEZ011>018-030>034-042>045-070100-
NORTHEAST NEBRASKA

CITY           SKY/WX    TMP DP  RH WIND       PRES   REMARKS
NORFOLK        PTCLDY    54  16  22 W6        30.08S
6HR MIN TEMP:  54; 6HR MAX TEMP:  62;

ALBION         MOCLDY    56  13  18 CALM      30.09F
BLAIR          CLEAR     56  18  22 SW6       30.09S
COLUMBUS *     PTCLDY    55  16  21 NW7       30.12S
FREMONT        CLEAR     56  15  20 W5        30.10S
TEKAMAH        CLEAR     53  23  31 N9        30.09S
6HR MIN TEMP:  53; 6HR MAX TEMP:  64;

$$

NEZ050>053-065>068-078-088>093-070100-
SOUTHEAST NEBRASKA

CITY           SKY/WX    TMP DP  RH WIND       PRES   REMARKS
LINCOLN        CLEAR     60  15  17 SW8       30.12F
6HR MIN TEMP:  57; 6HR MAX TEMP:  64;

OMAHA EPPLEY   PTCLDY    58  16  19 VRB7      30.09F
6HR MIN TEMP:  48; 6HR MAX TEMP:  63;

BEATRICE       CLEAR     56  17  22 SW7       30.14S
FALLS CITY     CLEAR     58  17  20 SW10      30.14F
6HR MIN TEMP:  55; 6HR MAX TEMP:  63;

NEBRASKA CITY  CLEAR     55   5  13 W7        30.13S
$$

NEZ044-045-051>053-067-070100-
OMAHA AREA

CITY           SKY/WX    TMP DP  RH WIND       PRES   REMARKS
OMAHA EPPLEY   PTCLDY    58  16  19 VRB7      30.09F
6HR MIN TEMP:  48; 6HR MAX TEMP:  63;

BLAIR          CLEAR     56  18  22 SW6       30.09S
FREMONT        CLEAR     56  15  20 W5        30.10S
OFFUTT AFB     CLEAR     57  17  20 SW6       30.10S
WAHOO          FAIR      59  11  15 SW7       30.09F
$$



USA.gov is the U.S. government's official web portal to all federal, state and local government web resources and services.